Time,TemperatureF,DewpointF,PressureIn,WindDirection,WindDirectionDegrees,WindSpeedMPH,WindSpeedGustMPH,Humidity,HourlyPrecipIn,Conditions,Clouds,dailyrainin,SolarRadiationWatts/m^2,SoftwareType,DateUTC
2013-03-06 00:09:00,50.1,43.0,29.85,SSE,163,4.0,14.0,77,0.00,,,0.00,0,weatherlink.com 1.10,2013-03-06 08:09:00,
2013-03-06 00:24:00,50.2,44.0,29.85,SSE,153,7.0,10.0,78,0.00,,,0.00,0,weatherlink.com 1.10,2013-03-06 08:24:00,
2013-03-06 00:39:00,50.6,43.0,29.85,South,175,3.0,12.0,76,0.00,,,0.00,0,weatherlink.com 1.10,2013-03-06 08:39:00,
2013-03-06 00:54:00,50.5,43.0,29.86,SSE,165,6.0,15.0,76,0.00,,,0.00,0,weatherlink.com 1.10,2013-03-06 08:54:00,
2013-03-06 01:09:00,51.2,43.0,29.86,South,184,3.0,9.0,73,0.00,,,0.00,0,weatherlink.com 1.10,2013-03-06 09:09:00,
2013-03-06 01:24:00,51.5,43.0,29.86,SSW,198,5.0,9.0,72,0.00,,,0.00,0,weatherlink.com 1.10,2013-03-06 09:24:00,
2013-03-06 01:39:00,51.7,42.0,29.87,South,181,2.0,9.0,70,0.00,,,0.00,0,weatherlink.com 1.10,2013-03-06 09:39:00,
2013-03-06 01:54:00,51.5,42.0,29.86,SSW,209,10.0,14.0,70,0.00,,,0.00,0,weatherlink.com 1.10,2013-03-06 09:54:00,
2013-03-06 02:09:00,51.7,42.0,29.86,ENE,78,2.0,15.0,69,0.00,,,0.00,0,weatherlink.com 1.10,2013-03-06 10:09:00,
2013-03-06 02:24:00,51.3,42.0,29.86,SSW,200,5.0,14.0,71,0.00,,,0.00,0,weatherlink.com 1.10,2013-03-06 10:24:00,
2013-03-06 02:39:00,51.7,43.0,29.87,SW,227,8.0,15.0,71,0.00,,,0.00,0,weatherlink.com 1.10,2013-03-06 10:39:00,
2013-03-06 02:54:00,51.5,43.0,29.87,SW,220,8.0,13.0,72,0.00,,,0.00,0,weatherlink.com 1.10,2013-03-06 10:54:00,
2013-03-06 03:09:00,51.9,43.0,29.87,SSW,211,3.0,18.0,72,0.00,,,0.00,0,weatherlink.com 1.10,2013-03-06 11:09:00,
2013-03-06 03:24:00,51.6,45.0,29.87,SW,226,8.0,16.0,77,0.00,,,0.00,0,weatherlink.com 1.10,2013-03-06 11:24:00,
2013-03-06 03:39:00,51.1,45.0,29.88,SSW,203,6.0,20.0,81,0.01,,,0.01,0,weatherlink.com 1.10,2013-03-06 11:39:00,
2013-03-06 03:54:00,50.9,44.0,29.89,SW,224,11.0,17.0,76,0.01,,,0.01,0,weatherlink.com 1.10,2013-03-06 11:54:00,
2013-03-06 04:09:00,50.4,45.0,29.90,SSW,206,5.0,10.0,81,0.01,,,0.01,0,weatherlink.com 1.10,2013-03-06 12:09:00,
2013-03-06 04:24:00,50.0,45.0,29.90,South,182,4.0,11.0,82,0.00,,,0.01,0,weatherlink.com 1.10,2013-03-06 12:24:00,
2013-03-06 04:40:00,49.2,45.0,29.91,South,175,3.0,13.0,84,0.00,,,0.01,0,weatherlink.com 1.10,2013-03-06 12:40:00,
2013-03-06 04:55:00,48.9,45.0,29.92,SSW,207,3.0,8.0,86,0.01,,,0.02,0,weatherlink.com 1.10,2013-03-06 12:55:00,
2013-03-06 05:10:00,48.4,45.0,29.92,SSW,213,2.0,8.0,87,0.02,,,0.03,0,weatherlink.com 1.10,2013-03-06 13:10:00,
2013-03-06 05:25:00,48.5,45.0,29.92,SSW,212,0.0,6.0,87,0.02,,,0.03,0,weatherlink.com 1.10,2013-03-06 13:25:00,
2013-03-06 05:40:00,48.7,45.0,29.92,WSW,252,4.0,10.0,86,0.02,,,0.03,0,weatherlink.com 1.10,2013-03-06 13:40:00,
2013-03-06 05:55:00,48.9,46.0,29.93,WSW,247,2.0,7.0,88,0.05,,,0.07,0,weatherlink.com 1.10,2013-03-06 13:55:00,
2013-03-06 06:10:00,48.7,45.0,29.95,WSW,248,2.0,7.0,87,0.04,,,0.07,0,weatherlink.com 1.10,2013-03-06 14:10:00,
2013-03-06 06:25:00,48.3,44.0,29.95,WSW,257,4.0,9.0,86,0.04,,,0.07,0,weatherlink.com 1.10,2013-03-06 14:25:00,
2013-03-06 06:40:00,48.1,43.0,29.96,SW,234,5.0,10.0,83,0.04,,,0.07,7,weatherlink.com 1.10,2013-03-06 14:40:00,
2013-03-06 06:55:00,47.9,43.0,29.97,WSW,253,3.0,12.0,82,0.00,,,0.07,18,weatherlink.com 1.10,2013-03-06 14:55:00,
2013-03-06 07:10:00,48.1,43.0,29.98,SW,231,5.0,9.0,81,0.00,,,0.07,26,weatherlink.com 1.10,2013-03-06 15:10:00,
2013-03-06 07:25:00,48.4,43.0,29.99,SSW,211,2.0,6.0,81,0.00,,,0.07,49,weatherlink.com 1.10,2013-03-06 15:25:00,
2013-03-06 07:40:00,49.7,44.0,29.99,South,169,4.0,5.0,82,0.00,,,0.07,151,weatherlink.com 1.10,2013-03-06 15:40:00,
2013-03-06 07:55:00,50.1,44.0,30.00,SSW,210,4.0,7.0,80,0.00,,,0.07,190,weatherlink.com 1.10,2013-03-06 15:55:00,
2013-03-06 08:10:00,51.2,44.0,30.00,SW,229,5.0,9.0,77,0.00,,,0.07,172,weatherlink.com 1.10,2013-03-06 16:10:00,
2013-03-06 08:40:00,51.7,43.0,30.02,WSW,240,4.0,12.0,73,0.00,,,0.07,308,weatherlink.com 1.10,2013-03-06 16:40:00,
2013-03-06 08:55:00,52.2,43.0,30.02,WSW,257,9.0,14.0,72,0.00,,,0.07,318,weatherlink.com 1.10,2013-03-06 16:55:00,
2013-03-06 09:10:00,52.2,43.0,30.03,WSW,253,6.0,12.0,72,0.00,,,0.07,141,weatherlink.com 1.10,2013-03-06 17:10:00,
2013-03-06 09:25:00,52.3,43.0,30.04,SW,220,4.0,10.0,70,0.00,,,0.07,149,weatherlink.com 1.10,2013-03-06 17:25:00,
2013-03-06 09:40:00,52.4,43.0,30.04,SW,215,0.0,9.0,71,0.00,,,0.07,125,weatherlink.com 1.10,2013-03-06 17:40:00,
2013-03-06 09:55:00,52.3,43.0,30.04,SW,216,0.0,6.0,70,0.00,,,0.07,221,weatherlink.com 1.10,2013-03-06 17:55:00,
2013-03-06 10:10:00,52.6,43.0,30.05,SW,223,6.0,8.0,71,0.00,,,0.07,494,weatherlink.com 1.10,2013-03-06 18:10:00,
2013-03-06 10:25:00,53.5,44.0,30.05,West,260,4.0,8.0,69,0.00,,,0.07,267,weatherlink.com 1.10,2013-03-06 18:25:00,
2013-03-06 10:41:00,53.5,42.0,30.06,West,261,5.0,6.0,66,0.00,,,0.07,183,weatherlink.com 1.10,2013-03-06 18:41:00,
2013-03-06 10:56:00,54.1,43.0,30.06,WSW,238,3.0,8.0,66,0.00,,,0.07,297,weatherlink.com 1.10,2013-03-06 18:56:00,
2013-03-06 11:11:00,54.6,43.0,30.06,SW,232,1.0,6.0,64,0.00,,,0.07,253,weatherlink.com 1.10,2013-03-06 19:11:00,
2013-03-06 11:26:00,55.3,42.0,30.07,WSW,250,2.0,7.0,62,0.00,,,0.07,271,weatherlink.com 1.10,2013-03-06 19:26:00,
2013-03-06 11:41:00,55.9,41.0,30.07,West,280,9.0,14.0,58,0.00,,,0.07,473,weatherlink.com 1.10,2013-03-06 19:41:00,
2013-03-06 11:56:00,56.4,42.0,30.06,SSW,213,5.0,10.0,60,0.00,,,0.07,415,weatherlink.com 1.10,2013-03-06 19:56:00,
2013-03-06 12:11:00,56.4,41.0,30.06,West,262,5.0,11.0,57,0.00,,,0.07,364,weatherlink.com 1.10,2013-03-06 20:11:00,
2013-03-06 12:26:00,56.7,41.0,30.06,WSW,257,6.0,11.0,57,0.00,,,0.07,438,weatherlink.com 1.10,2013-03-06 20:26:00,
2013-03-06 12:41:00,56.1,41.0,30.05,SW,219,0.0,9.0,57,0.00,,,0.07,350,weatherlink.com 1.10,2013-03-06 20:41:00,
2013-03-06 12:56:00,56.0,39.0,30.05,WSW,257,2.0,13.0,53,0.00,,,0.07,272,weatherlink.com 1.10,2013-03-06 20:56:00,
2013-03-06 13:11:00,56.6,39.0,30.05,WNW,288,6.0,16.0,52,0.00,,,0.07,469,weatherlink.com 1.10,2013-03-06 21:11:00,
2013-03-06 13:26:00,57.0,40.0,30.05,WNW,284,6.0,11.0,53,0.00,,,0.07,489,weatherlink.com 1.10,2013-03-06 21:26:00,
2013-03-06 13:41:00,57.3,39.0,30.05,SSW,206,5.0,11.0,50,0.00,,,0.07,452,weatherlink.com 1.10,2013-03-06 21:41:00,
2013-03-06 13:56:00,57.3,39.0,30.04,WSW,240,4.0,10.0,51,0.00,,,0.07,334,weatherlink.com 1.10,2013-03-06 21:56:00,
2013-03-06 14:11:00,57.6,39.0,30.04,SSW,207,6.0,11.0,50,0.00,,,0.07,411,weatherlink.com 1.10,2013-03-06 22:11:00,
2013-03-06 14:26:00,57.7,39.0,30.04,WSW,248,3.0,10.0,51,0.00,,,0.07,418,weatherlink.com 1.10,2013-03-06 22:26:00,
2013-03-06 14:41:00,57.8,39.0,30.04,West,272,2.0,10.0,50,0.00,,,0.07,271,weatherlink.com 1.10,2013-03-06 22:41:00,
2013-03-06 14:56:00,58.6,39.0,30.04,West,270,5.0,11.0,48,0.00,,,0.07,512,weatherlink.com 1.10,2013-03-06 22:56:00,
2013-03-06 15:11:00,58.3,38.0,30.03,SW,236,2.0,9.0,48,0.00,,,0.07,462,weatherlink.com 1.10,2013-03-06 23:11:00,
2013-03-06 15:26:00,58.7,38.0,30.03,West,267,6.0,10.0,47,0.00,,,0.07,531,weatherlink.com 1.10,2013-03-06 23:26:00,
2013-03-06 15:41:00,58.6,38.0,30.03,WNW,297,7.0,10.0,46,0.00,,,0.07,207,weatherlink.com 1.10,2013-03-06 23:41:00,
2013-03-06 15:56:00,57.8,37.0,30.03,WNW,288,5.0,9.0,47,0.00,,,0.07,179,weatherlink.com 1.10,2013-03-06 23:56:00,
2013-03-06 16:11:00,57.2,39.0,30.03,WNW,302,5.0,8.0,50,0.00,,,0.07,183,weatherlink.com 1.10,2013-03-07 00:11:00,
2013-03-06 16:26:00,56.9,39.0,30.03,WNW,303,5.0,9.0,51,0.00,,,0.07,178,weatherlink.com 1.10,2013-03-07 00:26:00,
2013-03-06 16:41:00,56.4,39.0,30.02,NW,315,6.0,8.0,53,0.00,,,0.07,120,weatherlink.com 1.10,2013-03-07 00:41:00,
2013-03-06 16:56:00,55.9,39.0,30.02,NW,320,4.0,9.0,54,0.00,,,0.07,102,weatherlink.com 1.10,2013-03-07 00:56:00,
2013-03-06 17:11:00,55.2,40.0,30.02,NW,304,3.0,7.0,56,0.00,,,0.07,62,weatherlink.com 1.10,2013-03-07 01:11:00,
2013-03-06 17:26:00,54.4,40.0,30.02,WNW,287,1.0,6.0,58,0.00,,,0.07,40,weatherlink.com 1.10,2013-03-07 01:26:00,
2013-03-06 17:41:00,53.6,40.0,30.02,WNW,293,4.0,5.0,60,0.00,,,0.07,25,weatherlink.com 1.10,2013-03-07 01:41:00,
2013-03-06 17:56:00,52.6,40.0,30.02,WNW,299,4.0,5.0,62,0.00,,,0.07,7,weatherlink.com 1.10,2013-03-07 01:56:00,
2013-03-06 18:11:00,51.7,40.0,30.02,WNW,300,1.0,6.0,64,0.00,,,0.07,0,weatherlink.com 1.10,2013-03-07 02:11:00,
2013-03-06 18:26:00,51.0,40.0,30.01,WNW,299,1.0,6.0,65,0.00,,,0.07,0,weatherlink.com 1.10,2013-03-07 02:26:00,
2013-03-06 18:41:00,50.8,39.0,30.01,NW,310,4.0,7.0,65,0.00,,,0.07,0,weatherlink.com 1.10,2013-03-07 02:41:00,
2013-03-06 18:56:00,50.1,39.0,30.01,WNW,294,2.0,6.0,66,0.00,,,0.07,0,weatherlink.com 1.10,2013-03-07 02:56:00,
2013-03-06 19:11:00,49.5,39.0,30.01,NW,309,4.0,5.0,68,0.00,,,0.07,0,weatherlink.com 1.10,2013-03-07 03:11:00,
2013-03-06 19:26:00,48.7,39.0,30.02,NW,309,1.0,3.0,69,0.00,,,0.07,0,weatherlink.com 1.10,2013-03-07 03:26:00,
2013-03-06 19:41:00,47.7,39.0,30.02,WNW,293,3.0,6.0,71,0.00,,,0.07,0,weatherlink.com 1.10,2013-03-07 03:41:00,
2013-03-06 19:56:00,46.9,39.0,30.01,NW,304,1.0,3.0,73,0.00,,,0.07,0,weatherlink.com 1.10,2013-03-07 03:56:00,
2013-03-06 20:11:00,46.2,38.0,30.02,NW,304,0.0,1.0,74,0.00,,,0.07,0,weatherlink.com 1.10,2013-03-07 04:11:00,
2013-03-06 20:26:00,45.7,39.0,30.02,NW,304,1.0,2.0,77,0.00,,,0.07,0,weatherlink.com 1.10,2013-03-07 04:26:00,
2013-03-06 20:41:00,45.8,39.0,30.02,NW,304,3.0,3.0,78,0.00,,,0.07,0,weatherlink.com 1.10,2013-03-07 04:41:00,
2013-03-06 20:56:00,46.2,40.0,30.02,NW,304,0.0,2.0,78,0.00,,,0.07,0,weatherlink.com 1.10,2013-03-07 04:56:00,
2013-03-06 21:11:00,46.1,40.0,30.02,WNW,296,0.0,5.0,78,0.00,,,0.07,0,weatherlink.com 1.10,2013-03-07 05:11:00,
2013-03-06 21:26:00,46.2,40.0,30.02,WNW,292,1.0,4.0,78,0.00,,,0.07,0,weatherlink.com 1.10,2013-03-07 05:26:00,
2013-03-06 21:41:00,46.3,40.0,30.01,WNW,286,1.0,4.0,78,0.00,,,0.07,0,weatherlink.com 1.10,2013-03-07 05:41:00,
2013-03-06 21:56:00,46.4,40.0,30.01,WNW,288,2.0,4.0,78,0.00,,,0.07,0,weatherlink.com 1.10,2013-03-07 05:56:00,
2013-03-06 22:11:00,46.4,40.0,30.01,WNW,288,1.0,4.0,79,0.00,,,0.07,0,weatherlink.com 1.10,2013-03-07 06:11:00,
2013-03-06 22:26:00,46.2,40.0,30.01,WNW,288,0.0,3.0,80,0.00,,,0.07,0,weatherlink.com 1.10,2013-03-07 06:26:00,
2013-03-06 22:41:00,46.0,40.0,30.00,WNW,288,1.0,2.0,80,0.00,,,0.07,0,weatherlink.com 1.10,2013-03-07 06:41:00,
2013-03-06 22:56:00,45.5,40.0,30.00,WNW,288,0.0,1.0,80,0.00,,,0.07,0,weatherlink.com 1.10,2013-03-07 06:56:00,
2013-03-06 23:11:00,44.4,39.0,30.00,WNW,288,0.0,0.0,81,0.00,,,0.07,0,weatherlink.com 1.10,2013-03-07 07:11:00,
2013-03-06 23:27:00,43.7,39.0,30.00,WNW,288,0.0,0.0,84,0.00,,,0.07,0,weatherlink.com 1.10,2013-03-07 07:27:00,
2013-03-06 23:42:00,43.7,40.0,30.00,WNW,288,0.0,0.0,86,0.00,,,0.07,0,weatherlink.com 1.10,2013-03-07 07:42:00,
2013-03-06 23:57:00,44.0,40.0,30.00,WNW,288,0.0,0.0,87,0.00,,,0.07,0,weatherlink.com 1.10,2013-03-07 07:57:00,